DW4078 Weather Reports


Display with metric or nautical units.
time (UTC)temp
F
wind
direction
speed
MPH
gust
MPH
rain 1hr
in
rain 24hr
in
rain mn
in
humidity
%
barometer
mb
20260508153623 57 254 3.0 8.0 0.00 0.02 0.02 66 1012.5
20260508153302 57 49 2.0 6.0 0.00 0.02 0.02 68 1012.4
20260508152702 56 77 2.0 6.0 0.00 0.02 0.02 69 1012.5
20260508152502 56 142 2.0 6.0 0.00 0.02 0.02 69 1012.4
20260508152305 57 155 2.0 6.0 0.00 0.02 0.02 67 1012.4
20260508152102 57 130 2.0 6.0 0.00 0.02 0.02 66 1012.4
20260508151702 56 210 2.0 6.0 0.00 0.02 0.02 67 1012.6
20260508151602 56 209 2.0 6.0 0.00 0.02 0.02 66 1012.6
20260508151102 55 33 2.0 6.0 0.00 0.02 0.02 70 1012.6
20260508151002 55 10 2.0 6.0 0.00 0.02 0.02 68 1012.4
20260508150802 56 59 1.0 4.0 0.00 0.02 0.02 68 1012.5
20260508150402 57 76 1.0 3.0 0.00 0.02 0.02 69 1012.5
20260508150302 57 91 1.0 3.0 0.00 0.02 0.02 69 1012.7
20260508150202 57 99 1.0 3.0 0.00 0.02 0.02 69 1012.6
20260508150123 56 102 1.0 3.0 0.00 0.02 0.02 68 1012.7
20260508145923 56 102 1.0 3.0 0.00 0.02 0.02 67 1012.7
20260508145002 54 24 2.0 4.0 0.00 0.02 0.02 70 1012.8
20260508144702 54 21 2.0 6.0 0.00 0.02 0.02 70 1012.8
20260508144602 54 7 2.0 6.0 0.00 0.02 0.02 72 1012.6
20260508144402 53 359 2.0 6.0 0.00 0.02 0.02 72 1012.6
20260508144302 53 335 2.0 6.0 0.00 0.02 0.02 71 1012.6
20260508143723 53 108 1.0 4.0 0.00 0.02 0.02 74 1012.7
20260508143623 53 106 1.0 4.0 0.00 0.02 0.02 73 1012.4
20260508143302 53 85 1.0 4.0 0.00 0.02 0.02 75 1012.6
20260508143102 53 83 1.0 4.0 0.00 0.02 0.02 75 1012.5
20260508142902 53 85 1.0 4.0 0.00 0.02 0.02 77 1012.7
20260508142802 53 82 1.0 4.0 0.00 0.02 0.02 78 1012.6
20260508142702 53 81 1.0 4.0 0.00 0.02 0.02 77 1012.8
20260508142602 53 82 1.0 4.0 0.00 0.02 0.02 76 1012.6
20260508142402 53 83 1.0 4.0 0.00 0.02 0.02 76 1012.6
20260508142102 53 97 0.0 2.0 0.00 0.02 0.02 78 1012.6
20260508142002 53 92 1.0 2.0 0.00 0.02 0.02 78 1012.7
20260508141923 52 93 1.0 2.0 0.00 0.02 0.02 77 1012.7
20260508141702 52 101 1.0 2.0 0.00 0.02 0.02 78 1012.9
20260508141602 52 101 1.0 2.0 0.00 0.02 0.02 78 1012.7
20260508141502 52 103 1.0 2.0 0.00 0.02 0.02 79 1012.8
20260508141202 51 117 0.0 2.0 0.00 0.02 0.02 78 1012.9
20260508141102 51 128 0.0 2.0 0.00 0.02 0.02 78 1013.0
20260508141023 51 145 0.0 2.0 0.00 0.02 0.02 78 1013.1
20260508140902 51 149 0.0 2.0 0.00 0.02 0.02 79 1013.1
20260508140702 51 98 0.0 1.0 0.00 0.02 0.02 79 1012.9
20260508140502 51 99 0.0 1.0 0.00 0.02 0.02 78 1012.8
20260508140023 51 99 0.0 1.0 0.00 0.02 0.02 77 1012.9
20260508135602 50 0 0.0 0.0 0.00 0.02 0.02 80 1013.0
20260508135523 50 0 0.0 0.0 0.00 0.02 0.02 80 1012.9
20260508135102 50 117 0.0 1.0 0.00 0.02 0.02 81 1012.9
20260508134702 50 122 0.0 2.0 0.01 0.02 0.02 81 1013.1
20260508134602 50 119 0.0 2.0 0.01 0.02 0.02 81 1013.1
20260508134202 49 118 0.0 2.0 0.02 0.02 0.02 83 1013.0
20260508134102 49 120 0.0 2.0 0.02 0.02 0.02 83 1012.9
20260508133902 50 113 0.0 2.0 0.02 0.02 0.02 83 1012.8
20260508133602 50 122 0.0 3.0 0.02 0.02 0.02 85 1012.8
20260508133102 49 120 1.0 3.0 0.02 0.02 0.02 85 1012.8
20260508133002 49 119 1.0 3.0 0.02 0.02 0.02 85 1012.8
20260508132223 48 118 0.0 1.0 0.02 0.02 0.02 86 1013.1
20260508132102 48 117 0.0 1.0 0.02 0.02 0.02 86 1012.9
20260508132002 48 122 0.0 1.0 0.02 0.02 0.02 87 1012.9
20260508131602 48 0 0.0 0.0 0.02 0.02 0.02 88 1012.9
20260508131502 48 0 0.0 0.0 0.02 0.02 0.02 88 1013.0
20260508131402 48 0 0.0 0.0 0.02 0.02 0.02 88 1013.2
20260508131202 48 0 0.0 0.0 0.02 0.02 0.02 87 1012.9
20260508131102 48 0 0.0 0.0 0.02 0.02 0.02 87 1013.4
20260508130902 48 0 0.0 0.0 0.02 0.02 0.02 86 1013.5
20260508130802 48 0 0.0 0.0 0.02 0.02 0.02 86 1013.2
20260508130702 48 0 0.0 0.0 0.02 0.02 0.02 86 1013.4
20260508130602 48 0 0.0 0.0 0.02 0.02 0.02 86 1013.7
20260508130423 48 0 0.0 0.0 0.02 0.02 0.02 85 1013.4
20260508130302 48 101 0.0 2.0 0.02 0.02 0.02 85 1013.4
20260508130202 48 101 0.0 2.0 0.02 0.02 0.02 85 1013.3
20260508125602 49 137 1.0 3.0 0.02 0.02 0.02 83 1013.2
20260508125502 49 137 1.0 3.0 0.02 0.02 0.02 82 1013.4
20260508125402 49 137 1.0 3.0 0.02 0.02 0.02 81 1013.2
20260508125323 49 132 1.0 3.0 0.02 0.02 0.02 80 1013.3
20260508124902 49 126 1.0 3.0 0.02 0.02 0.02 77 1013.4
20260508124702 49 105 1.0 2.0 0.01 0.01 0.01 76 1013.5
20260508124602 49 102 1.0 2.0 0.01 0.01 0.01 76 1013.5
20260508124202 49 106 1.0 2.0 0.00 0.00 0.00 75 1013.5
20260508124102 50 135 1.0 2.0 0.00 0.00 0.00 74 1013.3
20260508123602 50 200 0.0 2.0 0.00 0.00 0.00 74 1013.0
20260508123502 50 203 0.0 2.0 0.00 0.00 0.00 74 1013.0
20260508123302 50 196 0.0 2.0 0.00 0.00 0.00 74 1013.3
20260508123123 50 206 0.0 2.0 0.00 0.00 0.00 74 1013.2
20260508122902 50 188 0.0 2.0 0.00 0.00 0.00 75 1013.0
20260508122702 49 188 0.0 2.0 0.00 0.00 0.00 74 1012.8
20260508122602 49 188 0.0 2.0 0.00 0.00 0.00 74 1013.0
20260508122502 49 177 0.0 2.0 0.00 0.00 0.00 74 1012.9
20260508122102 49 95 0.0 1.0 0.00 0.00 0.00 75 1012.8
20260508122002 49 90 0.0 1.0 0.00 0.00 0.00 76 1013.0
20260508121902 49 102 0.0 2.0 0.00 0.00 0.00 75 1012.9
20260508121623 49 99 0.0 4.0 0.00 0.00 0.00 76 1012.9
20260508121523 50 100 1.0 4.0 0.00 0.00 0.00 75 1012.8
20260508121402 50 118 1.0 4.0 0.00 0.00 0.00 75 1012.8
20260508121102 49 183 1.0 4.0 0.00 0.00 0.00 73 1012.7
20260508120802 49 210 1.0 4.0 0.00 0.00 0.00 73 1012.8
20260508120623 49 214 1.0 4.0 0.00 0.00 0.00 73 1012.6
20260508120223 49 216 1.0 3.0 0.00 0.00 0.00 73 1012.7
20260508120002 49 99 1.0 3.0 0.00 0.00 0.00 74 1012.6
20260508115902 49 102 1.0 3.0 0.00 0.00 0.00 74 1012.5
20260508115602 49 162 1.0 3.0 0.00 0.00 0.00 74 1012.5
20260508115402 49 147 1.0 4.0 0.00 0.00 0.00 74 1012.4
20260508115306 49 154 1.0 4.0 0.00 0.00 0.00 74 1012.6
20260508115102 49 220 2.0 7.0 0.00 0.00 0.00 74 1012.6
20260508115002 49 215 2.0 7.0 0.00 0.00 0.00 74 1012.6
20260508114923 49 218 2.0 7.0 0.00 0.00 0.00 74 1012.4
20260508114802 49 231 2.0 7.0 0.00 0.00 0.00 74 1012.3
20260508114623 49 227 2.0 7.0 0.00 0.00 0.00 74 1012.3
20260508114502 49 225 2.0 7.0 0.00 0.00 0.00 73 1012.5
20260508114323 49 222 2.0 7.0 0.00 0.00 0.00 73 1012.4
20260508114102 49 194 2.0 4.0 0.00 0.00 0.00 74 1012.5
20260508114023 49 190 2.0 4.0 0.00 0.00 0.00 74 1012.4
20260508113702 49 166 1.0 4.0 0.00 0.00 0.00 74 1012.4
20260508113523 49 161 1.0 4.0 0.00 0.00 0.00 74 1012.2
20260508113123 48 164 1.0 6.0 0.00 0.00 0.00 74 1012.3
20260508112602 48 154 1.0 6.0 0.00 0.00 0.00 74 1011.8
20260508112306 48 143 1.0 4.0 0.00 0.00 0.00 75 1011.9
20260508112102 48 147 1.0 4.0 0.00 0.00 0.00 74 1011.9
20260508111602 47 158 1.0 4.0 0.00 0.00 0.00 75 1012.0
20260508111202 47 159 1.0 4.0 0.00 0.00 0.00 75 1011.9
20260508111123 47 159 1.0 4.0 0.00 0.00 0.00 75 1012.3
20260508111002 47 163 1.0 6.0 0.00 0.00 0.00 75 1012.0
20260508110902 47 164 1.0 6.0 0.00 0.00 0.00 75 1012.4
20260508110802 47 158 1.0 6.0 0.00 0.00 0.00 76 1012.2
20260508110602 47 156 1.0 6.0 0.00 0.00 0.00 76 1012.4
20260508110402 47 156 1.0 6.0 0.00 0.00 0.00 76 1012.4
20260508110302 46 153 1.0 6.0 0.00 0.00 0.00 76 1012.4
20260508105902 46 119 1.0 3.0 0.00 0.00 0.00 79 1012.3
20260508105802 46 117 1.0 3.0 0.00 0.00 0.00 79 1012.3
20260508105702 46 119 1.0 3.0 0.00 0.00 0.00 79 1012.4
20260508105305 46 121 1.0 3.0 0.00 0.00 0.00 80 1012.3
20260508105102 45 125 0.0 3.0 0.00 0.00 0.00 80 1012.3
20260508105002 45 124 0.0 3.0 0.00 0.00 0.00 80 1012.3
20260508104902 45 123 0.0 3.0 0.00 0.00 0.00 80 1012.2
20260508104602 45 114 0.0 2.0 0.00 0.00 0.00 81 1012.2
20260508104523 45 109 0.0 2.0 0.00 0.00 0.00 81 1012.4
20260508104402 45 109 0.0 2.0 0.00 0.00 0.00 81 1012.5
20260508104302 45 113 0.0 2.0 0.00 0.00 0.00 82 1012.5
20260508104102 45 116 0.0 2.0 0.00 0.00 0.00 82 1012.4
20260508103902 45 117 0.0 2.0 0.00 0.00 0.00 82 1012.5
20260508103402 45 112 0.0 2.0 0.00 0.00 0.00 81 1012.2
20260508103302 45 112 0.0 2.0 0.00 0.00 0.00 81 1012.2
20260508103102 45 105 0.0 1.0 0.00 0.00 0.00 82 1012.0
20260508102702 44 105 0.0 2.0 0.00 0.00 0.00 82 1011.9
20260508102602 44 105 0.0 2.0 0.00 0.00 0.00 82 1012.0
20260508102306 44 105 0.0 2.0 0.00 0.00 0.00 82 1012.0
20260508102223 44 107 0.0 2.0 0.00 0.00 0.00 82 1012.0
20260508101802 45 120 0.0 2.0 0.00 0.00 0.00 81 1012.2
20260508101702 45 120 0.0 2.0 0.00 0.00 0.00 81 1012.2
20260508101602 45 120 0.0 2.0 0.00 0.00 0.00 81 1012.0
20260508101402 44 120 0.0 2.0 0.00 0.00 0.00 81 1012.5
20260508101002 44 0 0.0 0.0 0.00 0.00 0.00 83 1012.0
20260508100402 44 111 0.0 1.0 0.00 0.00 0.00 82 1012.2
20260508100202 44 111 0.0 1.0 0.00 0.00 0.00 82 1012.2
20260508095902 44 116 0.0 1.0 0.00 0.00 0.00 81 1012.3
20260508095702 44 116 0.0 1.0 0.00 0.00 0.00 80 1012.2
20260508095523 44 121 0.0 1.0 0.00 0.00 0.00 81 1012.0
20260508095402 45 129 0.0 1.0 0.00 0.00 0.00 81 1012.2
20260508095202 45 129 0.0 1.0 0.00 0.00 0.00 79 1012.2
20260508095102 45 129 0.0 1.0 0.00 0.00 0.00 79 1012.3
20260508094602 45 184 1.0 3.0 0.00 0.00 0.00 79 1012.3
20260508094302 46 158 1.0 3.0 0.00 0.00 0.00 78 1012.3
20260508094123 46 159 1.0 3.0 0.00 0.00 0.00 78 1012.3
20260508093902 46 167 1.0 3.0 0.00 0.00 0.00 77 1012.2
20260508093602 46 144 1.0 3.0 0.00 0.00 0.00 78 1012.4
20260508093502 46 144 1.0 3.0 0.00 0.00 0.00 78 1012.4
20260508093402 46 153 1.0 3.0 0.00 0.00 0.00 78 1012.4
20260508093302 46 155 1.0 3.0 0.00 0.00 0.00 78 1012.3
20260508092902 46 138 1.0 3.0 0.00 0.00 0.00 77 1012.2
20260508092702 46 160 1.0 6.0 0.00 0.00 0.00 77 1012.3
20260508092602 46 165 1.0 6.0 0.00 0.00 0.00 76 1012.3
20260508092402 46 163 1.0 6.0 0.00 0.00 0.00 77 1012.2
20260508092102 46 173 1.0 6.0 0.00 0.00 0.00 76 1012.3
20260508092023 46 175 1.0 6.0 0.00 0.00 0.00 76 1012.4
20260508091923 46 182 1.0 6.0 0.00 0.00 0.00 76 1012.4
20260508091623 46 182 1.0 4.0 0.00 0.00 0.00 77 1012.5
20260508091502 46 177 2.0 6.0 0.00 0.00 0.00 77 1012.4
20260508091402 46 178 1.0 6.0 0.00 0.00 0.00 77 1012.2
20260508091302 46 176 1.0 6.0 0.00 0.00 0.00 76 1012.5
20260508091102 46 173 2.0 6.0 0.00 0.00 0.00 76 1012.3
20260508090902 46 162 1.0 6.0 0.00 0.00 0.00 76 1012.4
20260508090723 46 151 1.0 6.0 0.00 0.00 0.00 77 1012.5
20260508090602 46 151 1.0 6.0 0.00 0.00 0.00 77 1012.5
20260508090502 46 147 1.0 4.0 0.00 0.00 0.00 77 1012.4
20260508085823 46 144 1.0 3.0 0.00 0.00 0.00 77 1012.5
20260508085702 46 147 1.0 3.0 0.00 0.00 0.00 77 1012.5
20260508085402 46 142 1.0 3.0 0.00 0.00 0.00 77 1012.4
20260508085202 46 143 1.0 3.0 0.00 0.00 0.00 76 1012.4
20260508085102 46 142 1.0 3.0 0.00 0.00 0.00 76 1012.4
20260508085002 46 136 1.0 4.0 0.00 0.00 0.00 76 1012.3
20260508084702 46 138 1.0 4.0 0.00 0.00 0.00 76 1012.4
20260508084523 46 139 1.0 4.0 0.00 0.00 0.00 76 1012.3
20260508084402 46 146 1.0 4.0 0.00 0.00 0.00 76 1012.6
20260508084102 46 147 1.0 4.0 0.00 0.00 0.00 76 1012.6
20260508083602 46 164 2.0 6.0 0.00 0.00 0.00 76 1012.5
20260508083302 46 163 1.0 6.0 0.00 0.00 0.00 76 1012.6
20260508083102 46 164 1.0 6.0 0.00 0.00 0.00 76 1012.7
20260508083024 46 168 1.0 6.0 0.00 0.00 0.00 76 1012.6
20260508082802 46 170 1.0 6.0 0.00 0.00 0.00 76 1012.6
20260508082602 46 163 1.0 4.0 0.00 0.00 0.00 76 1012.6
20260508082502 46 164 1.0 4.0 0.00 0.00 0.00 76 1012.5
20260508082305 47 163 1.0 4.0 0.00 0.00 0.00 75 1012.5
20260508082202 47 164 2.0 4.0 0.00 0.00 0.00 75 1012.4
20260508082102 47 169 2.0 4.0 0.00 0.00 0.00 75 1012.7
20260508082023 47 164 2.0 4.0 0.00 0.00 0.00 75 1012.5
20260508081802 47 159 2.0 4.0 0.00 0.00 0.00 75 1012.5
20260508081402 47 167 2.0 6.0 0.00 0.00 0.00 74 1012.6
20260508081102 47 172 2.0 7.0 0.00 0.00 0.00 74 1012.5
20260508080602 47 182 3.0 8.0 0.00 0.00 0.00 73 1012.4
20260508080402 47 194 3.0 8.0 0.00 0.00 0.00 73 1012.5
20260508080002 47 188 3.0 8.0 0.00 0.00 0.00 73 1012.5
20260508075802 47 189 3.0 8.0 0.00 0.00 0.00 73 1012.7
20260508075702 48 192 3.0 8.0 0.00 0.00 0.00 72 1012.5
20260508075502 48 188 3.0 9.0 0.00 0.00 0.00 72 1012.7
20260508075402 48 182 3.0 9.0 0.00 0.00 0.00 72 1012.6
20260508075307 48 185 3.0 9.0 0.00 0.00 0.00 72 1012.6
20260508075102 48 179 3.0 9.0 0.00 0.00 0.00 72 1012.6
20260508074702 48 193 4.0 10.0 0.00 0.00 0.00 71 1012.6
20260508074602 48 190 4.0 10.0 0.00 0.00 0.00 71 1012.7
20260508074402 48 207 4.0 14.0 0.00 0.00 0.00 71 1012.6
20260508074302 48 206 4.0 14.0 0.00 0.00 0.00 71 1012.5
20260508074202 48 214 4.0 14.0 0.00 0.00 0.00 70 1012.4
20260508074123 48 215 5.0 14.0 0.00 0.00 0.00 70 1012.7
20260508074002 48 219 5.0 14.0 0.00 0.00 0.00 70 1012.6
20260508073923 48 216 5.0 14.0 0.00 0.00 0.00 70 1012.6
20260508073702 48 214 5.0 14.0 0.00 0.00 0.00 70 1012.5
20260508073323 49 216 5.0 11.0 0.00 0.00 0.00 69 1012.6
20260508073102 49 212 4.0 11.0 0.00 0.00 0.00 69 1012.7
20260508073002 49 207 4.0 11.0 0.00 0.00 0.00 69 1012.5
20260508072902 49 210 4.0 11.0 0.00 0.00 0.00 68 1012.5
20260508072802 49 210 4.0 11.0 0.00 0.00 0.00 68 1012.7
20260508072702 49 213 4.0 11.0 0.00 0.00 0.00 68 1012.6
20260508072602 49 210 4.0 11.0 0.00 0.00 0.00 68 1012.6
20260508072502 49 216 4.0 11.0 0.00 0.00 0.00 68 1012.6
20260508072402 49 211 4.0 11.0 0.00 0.00 0.00 68 1012.5
20260508072202 49 208 4.0 11.0 0.00 0.00 0.00 68 1012.5
20260508071602 49 199 4.0 11.0 0.00 0.00 0.00 67 1012.6
20260508071502 49 190 4.0 11.0 0.00 0.00 0.00 67 1012.8
20260508071402 49 191 4.0 11.0 0.00 0.00 0.00 67 1012.6
20260508071102 48 183 3.0 10.0 0.00 0.00 0.00 67 1012.7
20260508071023 48 178 3.0 10.0 0.00 0.00 0.00 67 1012.7
20260508070902 48 174 2.0 8.0 0.00 0.00 0.00 68 1012.8
20260508070802 48 182 2.0 8.0 0.00 0.00 0.00 68 1012.7
20260508070602 48 184 2.0 8.0 0.00 0.00 0.00 67 1012.7
20260508070202 48 176 2.0 7.0 0.00 0.00 0.00 68 1012.7
20260508065823 47 164 2.0 7.0 0.00 0.00 0.00 68 1012.7
20260508065723 47 160 1.0 7.0 0.00 0.00 0.00 69 1012.6
20260508065502 47 154 2.0 7.0 0.00 0.00 0.00 69 1012.6
20260508065402 47 150 1.0 7.0 0.00 0.00 0.00 70 1012.7
20260508065306 47 146 1.0 7.0 0.00 0.00 0.00 69 1012.5
20260508065202 47 144 1.0 7.0 0.00 0.00 0.00 70 1012.5
20260508064902 47 138 1.0 7.0 0.00 0.00 0.00 70 1012.3
20260508064602 47 133 1.0 7.0 0.00 0.00 0.00 70 1012.7
20260508064202 47 140 1.0 4.0 0.00 0.00 0.00 71 1012.5
20260508064002 47 142 1.0 4.0 0.00 0.00 0.00 71 1012.6
20260508063802 47 143 1.0 4.0 0.00 0.00 0.00 71 1012.4
20260508063723 47 143 1.0 4.0 0.00 0.00 0.00 70 1012.6
20260508063623 47 143 1.0 4.0 0.00 0.00 0.00 71 1012.6
20260508063502 47 141 1.0 4.0 0.00 0.00 0.00 72 1012.7
20260508063402 46 141 1.0 4.0 0.00 0.00 0.00 71 1012.7
20260508063202 46 138 1.0 3.0 0.00 0.00 0.00 72 1012.5
20260508062902 46 130 0.0 3.0 0.00 0.00 0.00 73 1012.5
20260508062802 46 130 0.0 3.0 0.00 0.00 0.00 73 1012.8
20260508062702 46 129 0.0 3.0 0.00 0.00 0.00 73 1012.6
20260508062102 46 120 0.0 1.0 0.00 0.00 0.00 73 1012.7
20260508062002 46 119 0.0 1.0 0.00 0.00 0.00 73 1012.7
20260508061602 46 116 0.0 1.0 0.00 0.00 0.00 73 1012.6
20260508061502 46 116 0.0 2.0 0.00 0.00 0.00 73 1012.5
20260508061102 46 119 0.0 2.0 0.00 0.00 0.00 74 1012.7
20260508060902 46 122 0.0 2.0 0.00 0.00 0.00 73 1012.8
20260508060802 46 123 1.0 2.0 0.00 0.00 0.00 72 1012.7
20260508060602 46 123 1.0 2.0 0.00 0.00 0.00 73 1012.7
20260508060502 46 123 1.0 2.0 0.00 0.00 0.00 73 1012.8
20260508060402 46 122 1.0 2.0 0.00 0.00 0.00 73 1012.7
20260508060302 46 123 1.0 2.0 0.00 0.00 0.00 73 1012.9
20260508055902 46 122 1.0 2.0 0.00 0.00 0.00 73 1012.6
20260508055623 46 122 0.0 2.0 0.00 0.00 0.00 72 1012.7
20260508055402 46 123 0.0 1.0 0.00 0.00 0.00 72 1012.9
20260508055102 46 122 0.0 2.0 0.00 0.00 0.00 72 1013.0
20260508055002 46 122 0.0 2.0 0.00 0.00 0.00 72 1012.8
20260508054902 47 121 0.0 2.0 0.00 0.00 0.00 72 1013.0
20260508054802 47 121 0.0 2.0 0.00 0.00 0.00 71 1012.9
20260508054602 47 120 0.0 2.0 0.00 0.00 0.00 71 1012.9
20260508054223 46 118 0.0 2.0 0.00 0.00 0.00 71 1012.9
20260508054123 47 119 0.0 2.0 0.00 0.00 0.00 70 1012.8
20260508054002 47 120 0.0 2.0 0.00 0.00 0.00 71 1013.0
20260508053802 47 120 0.0 2.0 0.00 0.00 0.00 70 1013.0
20260508053602 47 123 0.0 2.0 0.00 0.00 0.00 70 1013.0
20260508053403 47 126 0.0 2.0 0.00 0.00 0.00 70 1013.1
20260508052923 46 126 1.0 2.0 0.00 0.00 0.00 70 1013.0
20260508052425 47 131 1.0 2.0 0.00 0.00 0.00 70 1013.4
20260508052307 47 131 1.0 2.0 0.00 0.00 0.00 69 1013.1
20260508051803 46 136 1.0 2.0 0.00 0.00 0.00 69 1013.2
20260508051704 46 136 0.0 2.0 0.00 0.00 0.00 70 1013.2
20260508051623 46 138 1.0 2.0 0.00 0.00 0.00 70 1013.3
20260508051402 46 139 1.0 3.0 0.00 0.00 0.00 69 1013.3
20260508050902 47 138 1.0 3.0 0.00 0.00 0.00 69 1013.3
20260508050802 47 139 1.0 3.0 0.00 0.00 0.00 69 1013.3
20260508050302 47 138 1.0 3.0 0.00 0.00 0.00 68 1013.2
20260508050002 47 142 1.0 3.0 0.00 0.00 0.00 68 1013.2
20260508045902 47 142 1.0 3.0 0.00 0.00 0.00 68 1013.3
20260508045602 47 146 1.0 3.0 0.00 0.00 0.00 68 1013.3
20260508045323 47 147 1.0 3.0 0.00 0.00 0.00 67 1013.3
20260508045202 47 146 1.0 4.0 0.00 0.00 0.00 68 1013.4
20260508044902 47 149 1.0 4.0 0.00 0.00 0.00 67 1013.3
20260508044802 47 146 1.0 4.0 0.00 0.00 0.00 68 1013.3
20260508044702 47 143 1.0 4.0 0.00 0.00 0.00 68 1013.3
20260508044423 47 145 1.0 4.0 0.00 0.00 0.00 68 1013.3
20260508044302 47 144 1.0 4.0 0.00 0.00 0.00 68 1013.3
20260508044102 47 145 1.0 4.0 0.00 0.00 0.00 68 1013.3
20260508043902 47 141 1.0 4.0 0.00 0.00 0.00 67 1013.3
20260508043802 46 143 1.0 4.0 0.00 0.00 0.00 67 1013.3
20260508043623 46 140 1.0 4.0 0.00 0.00 0.00 68 1013.3
20260508043402 46 140 1.0 4.0 0.00 0.00 0.00 68 1013.4
20260508043202 46 138 1.0 2.0 0.00 0.00 0.00 68 1013.5
20260508043102 46 140 1.0 2.0 0.00 0.00 0.00 68 1013.4
20260508043002 46 138 1.0 2.0 0.00 0.00 0.00 68 1013.5
20260508042702 46 135 0.0 2.0 0.00 0.00 0.00 68 1013.3
20260508042602 46 130 0.0 2.0 0.00 0.00 0.00 67 1013.4
20260508042202 46 131 0.0 2.0 0.00 0.00 0.00 67 1013.4
20260508042002 46 131 0.0 2.0 0.00 0.00 0.00 68 1013.4
20260508041923 46 135 0.0 2.0 0.00 0.00 0.00 67 1013.4
20260508041702 46 138 0.0 2.0 0.00 0.00 0.00 67 1013.4
20260508041602 46 135 0.0 2.0 0.00 0.00 0.00 67 1013.3
20260508041523 46 136 0.0 2.0 0.00 0.00 0.00 68 1013.4
20260508041423 46 134 1.0 2.0 0.00 0.00 0.00 67 1013.3
20260508041102 46 145 1.0 4.0 0.00 0.00 0.00 66 1013.3
20260508041002 46 144 1.0 4.0 0.00 0.00 0.00 66 1013.3
20260508040623 46 148 1.0 4.0 0.00 0.00 0.00 66 1013.2
20260508040502 46 148 1.0 4.0 0.00 0.00 0.00 65 1013.2
20260508040202 45 145 1.0 3.0 0.00 0.00 0.00 66 1013.4
20260508035802 45 155 1.0 6.0 0.00 0.00 0.00 65 1013.3
20260508035702 45 155 2.0 6.0 0.00 0.00 0.00 65 1013.4
20260508035602 45 156 2.0 6.0 0.00 0.00 0.00 65 1013.4
20260508035402 45 155 1.0 6.0 0.00 0.00 0.00 65 1013.4
20260508035102 45 153 1.0 6.0 0.00 0.00 0.00 66 1013.5
20260508034902 44 143 0.0 6.0 0.00 0.00 0.00 67 1013.5
20260508034802 44 131 0.0 2.0 0.00 0.00 0.00 68 1013.4
20260508034702 44 126 0.0 2.0 0.00 0.00 0.00 69 1013.4
20260508034402 44 125 0.0 1.0 0.00 0.00 0.00 70 1013.5
20260508034002 43 131 0.0 1.0 0.00 0.00 0.00 70 1013.3
20260508033902 42 135 0.0 1.0 0.00 0.00 0.00 71 1013.3
20260508033802 42 138 0.0 1.0 0.00 0.00 0.00 73 1013.5
20260508033502 41 138 0.0 1.0 0.00 0.00 0.00 75 1013.4
20260508033402 41 138 0.0 1.0 0.00 0.00 0.00 76 1013.5
20260508033102 41 0 0.0 0.0 0.00 0.00 0.00 77 1013.3
20260508032423 40 0 0.0 0.0 0.00 0.00 0.00 80 1013.4
20260508032202 40 0 0.0 0.0 0.00 0.00 0.00 79 1013.3
20260508031902 40 0 0.0 0.0 0.00 0.00 0.00 79 1013.3
20260508031802 40 0 0.0 0.0 0.00 0.00 0.00 79 1013.4
20260508031702 40 0 0.0 0.0 0.00 0.00 0.00 80 1013.2
20260508031602 40 0 0.0 0.0 0.00 0.00 0.00 79 1013.4
20260508031502 40 0 0.0 0.0 0.00 0.00 0.00 80 1013.3
20260508031102 40 0 0.0 0.0 0.00 0.00 0.00 81 1013.6
20260508031023 40 0 0.0 0.0 0.00 0.00 0.00 81 1013.3
20260508030902 40 0 0.0 0.0 0.00 0.00 0.00 81 1013.4
20260508030402 40 0 0.0 0.0 0.00 0.00 0.00 79 1013.3
20260508030302 40 0 0.0 0.0 0.00 0.00 0.00 79 1013.3
20260508030202 41 0 0.0 0.0 0.00 0.00 0.00 79 1013.3
20260508030002 41 0 0.0 0.0 0.00 0.00 0.00 78 1013.3
20260508025902 41 0 0.0 0.0 0.00 0.00 0.00 78 1013.3
20260508025602 41 0 0.0 0.0 0.00 0.00 0.00 77 1013.3
20260508025502 41 0 0.0 0.0 0.00 0.00 0.00 76 1013.4
20260508025402 41 0 0.0 0.0 0.00 0.00 0.00 77 1013.3
20260508025305 41 0 0.0 0.0 0.00 0.00 0.00 77 1013.4
20260508025202 41 0 0.0 0.0 0.00 0.00 0.00 78 1013.4
20260508025102 41 0 0.0 0.0 0.00 0.00 0.00 78 1013.4
20260508024902 41 0 0.0 0.0 0.00 0.00 0.00 76 1013.3
20260508024802 41 0 0.0 0.0 0.00 0.00 0.00 76 1013.3
20260508024602 41 0 0.0 0.0 0.00 0.00 0.00 77 1013.2
20260508024423 40 0 0.0 0.0 0.00 0.00 0.00 79 1013.3
20260508024202 40 0 0.0 0.0 0.00 0.00 0.00 80 1013.3
20260508024102 40 0 0.0 0.0 0.00 0.00 0.00 80 1013.3
20260508023902 40 0 0.0 0.0 0.00 0.00 0.00 80 1013.3
20260508023602 40 0 0.0 0.0 0.00 0.00 0.00 79 1013.3
20260508023523 40 0 0.0 0.0 0.00 0.00 0.00 79 1013.5
20260508023102 41 0 0.0 0.0 0.00 0.00 0.00 79 1013.2
20260508022923 41 0 0.0 0.0 0.00 0.00 0.00 79 1013.3
20260508022003 40 0 0.0 0.0 0.00 0.00 0.00 80 1013.2
20260508021802 40 0 0.0 0.0 0.00 0.00 0.00 80 1013.3
20260508021602 40 0 0.0 0.0 0.00 0.00 0.00 80 1013.4
20260508021502 40 0 0.0 0.0 0.00 0.00 0.00 79 1013.3
20260508021402 40 0 0.0 0.0 0.00 0.00 0.00 79 1013.2
20260508020823 41 0 0.0 0.0 0.00 0.00 0.00 78 1013.1
20260508020602 41 0 0.0 0.0 0.00 0.00 0.00 78 1013.2
20260508020002 42 0 0.0 0.0 0.00 0.00 0.00 77 1013.2
20260508015902 42 0 0.0 0.0 0.00 0.00 0.00 76 1013.2
20260508015702 42 0 0.0 0.0 0.00 0.00 0.00 76 1013.2
20260508015602 42 0 0.0 0.0 0.00 0.00 0.00 76 1013.1
20260508015402 42 0 0.0 0.0 0.00 0.00 0.00 75 1013.3
20260508015202 42 0 0.0 0.0 0.00 0.00 0.00 76 1013.1
20260508015002 42 0 0.0 0.0 0.00 0.00 0.00 76 1013.2
20260508014702 42 0 0.0 0.0 0.00 0.00 0.00 75 1013.1
20260508014602 42 0 0.0 0.0 0.00 0.00 0.00 74 1013.2
20260508014502 42 0 0.0 0.0 0.00 0.00 0.00 74 1013.2
20260508014402 42 0 0.0 0.0 0.00 0.00 0.00 74 1013.2
20260508014102 43 0 0.0 0.0 0.00 0.00 0.00 73 1013.0
20260508013502 43 0 0.0 0.0 0.00 0.00 0.00 71 1012.9
20260508013402 43 0 0.0 0.0 0.00 0.00 0.00 71 1013.0
20260508013102 44 0 0.0 0.0 0.00 0.00 0.00 70 1013.1
20260508012902 44 0 0.0 0.0 0.00 0.00 0.00 69 1013.0
20260508012102 44 0 0.0 0.0 0.00 0.00 0.00 68 1013.1
20260508012002 44 0 0.0 0.0 0.00 0.00 0.00 68 1013.1
20260508011623 45 0 0.0 0.0 0.00 0.00 0.00 67 1013.0
20260508011402 45 0 0.0 0.0 0.00 0.00 0.00 66 1013.0
20260508011302 45 0 0.0 0.0 0.00 0.00 0.00 67 1012.9
20260508011102 45 0 0.0 0.0 0.00 0.00 0.00 65 1013.1
20260508011002 45 0 0.0 0.0 0.00 0.00 0.00 65 1012.9
20260508010824 46 0 0.0 0.0 0.00 0.00 0.00 65 1013.1
20260508010702 46 0 0.0 0.0 0.00 0.00 0.00 64 1012.9
20260508010602 46 0 0.0 0.0 0.00 0.00 0.00 64 1012.9
20260508010002 47 0 0.0 0.0 0.00 0.00 0.00 61 1012.8
20260508005902 47 0 0.0 0.0 0.00 0.00 0.00 60 1012.9
20260508005702 47 0 0.0 0.0 0.00 0.00 0.00 58 1012.8
20260508005402 48 0 0.0 0.0 0.00 0.00 0.00 57 1012.8
20260508005202 48 0 0.0 0.0 0.00 0.00 0.00 56 1012.9
20260508004923 49 0 0.0 0.0 0.00 0.00 0.00 54 1012.9
20260508004702 49 0 0.0 0.0 0.00 0.00 0.00 51 1012.8
20260508004602 49 0 0.0 0.0 0.00 0.00 0.00 51 1012.9
20260508004402 50 0 0.0 0.0 0.00 0.00 0.00 52 1013.0
20260508004302 50 0 0.0 0.0 0.00 0.00 0.00 50 1013.0
20260508004123 50 0 0.0 0.0 0.00 0.00 0.00 50 1013.1
20260508004002 50 111 0.0 1.0 0.00 0.00 0.00 49 1012.9
20260508003802 50 111 0.0 2.0 0.00 0.00 0.00 48 1013.0
20260508003402 50 194 1.0 6.0 0.00 0.00 0.00 48 1013.1
20260508002803 51 96 2.0 6.0 0.00 0.00 0.00 47 1012.9
20260508002502 51 229 2.0 6.0 0.00 0.00 0.00 46 1012.8
20260508002423 51 59 2.0 6.0 0.00 0.00 0.00 48 1012.9
20260508002002 51 206 2.0 6.0 0.00 0.00 0.00 46 1012.8
20260508001802 52 245 2.0 6.0 0.00 0.00 0.00 46 1012.6
20260508001502 52 276 2.0 7.0 0.00 0.00 0.00 46 1012.7
20260508001402 52 255 2.0 7.0 0.00 0.00 0.00 47 1012.7
20260508001223 52 263 2.0 7.0 0.00 0.00 0.00 46 1012.7
20260508001102 52 278 3.0 7.0 0.00 0.00 0.00 46 1012.7
20260508000902 52 300 3.0 7.0 0.00 0.00 0.00 45 1012.6
20260508000404 53 15 2.0 7.0 0.00 0.00 0.00 45 1012.7
20260508000304 53 21 2.0 7.0 0.00 0.00 0.00 44 1012.6
20260508000204 53 42 2.0 7.0 0.00 0.00 0.00 44 1012.6
20260508000123 53 41 2.0 7.0 0.00 0.00 0.00 44 1012.6
20260508000002 53 78 3.0 8.0 0.00 0.00 0.00 44 1012.4
20260507235602 53 6 3.0 10.0 0.00 0.00 0.00 44 1012.4
20260507235402 53 5 3.0 10.0 0.00 0.00 0.00 44 1012.5
20260507235202 53 357 3.0 10.0 0.00 0.00 0.00 44 1012.5
20260507235002 53 346 3.0 10.0 0.00 0.00 0.00 46 1012.6
20260507234902 54 332 3.0 10.0 0.00 0.00 0.00 44 1012.5
20260507233823 54 325 3.0 9.0 0.00 0.00 0.00 43 1012.3
20260507233602 54 328 4.0 9.0 0.00 0.00 0.00 44 1012.6
20260507233202 54 297 4.0 9.0 0.00 0.00 0.00 43 1012.4
20260507233102 54 307 4.0 9.0 0.00 0.00 0.00 44 1012.5
20260507232602 54 313 4.0 11.0 0.00 0.00 0.00 42 1012.4
20260507232523 54 313 4.0 11.0 0.00 0.00 0.00 43 1012.6
20260507232402 54 325 5.0 11.0 0.00 0.00 0.00 42 1012.7
20260507232102 54 321 5.0 11.0 0.00 0.00 0.00 42 1012.5
20260507231923 54 310 6.0 15.0 0.00 0.00 0.00 42 1012.5
20260507231802 54 300 6.0 15.0 0.00 0.00 0.00 43 1012.4
20260507231702 54 292 5.0 15.0 0.00 0.00 0.00 42 1012.5
20260507231602 54 294 6.0 15.0 0.00 0.00 0.00 42 1012.5
20260507231502 54 297 5.0 15.0 0.00 0.00 0.00 43 1012.4
20260507231323 54 299 5.0 15.0 0.00 0.00 0.00 44 1012.5
20260507231002 54 300 5.0 15.0 0.00 0.00 0.00 42 1012.5
20260507230902 54 308 5.0 14.0 0.00 0.00 0.00 42 1012.4
20260507230602 54 318 6.0 14.0 0.00 0.00 0.00 42 1012.4
20260507230502 54 312 6.0 14.0 0.00 0.00 0.00 43 1012.5
20260507230302 54 307 6.0 14.0 0.00 0.00 0.00 43 1012.6
20260507230202 54 300 6.0 14.0 0.00 0.00 0.00 42 1012.6
20260507230003 54 302 6.0 13.0 0.00 0.00 0.00 42 1012.6
20260507225802 54 290 6.0 15.0 0.00 0.00 0.00 42 1012.6
20260507225723 54 288 6.0 17.0 0.00 0.00 0.00 43 1012.7
20260507225602 55 286 7.0 17.0 0.00 0.00 0.00 42 1012.8
20260507225102 54 288 6.0 17.0 0.00 0.00 0.00 42 1012.6
20260507225002 54 294 6.0 17.0 0.00 0.00 0.00 41 1012.5
20260507224903 55 300 6.0 17.0 0.00 0.00 0.00 42 1012.7
20260507224702 55 316 5.0 14.0 0.00 0.00 0.00 42 1012.4
20260507224602 55 316 5.0 11.0 0.00 0.00 0.00 41 1012.6
20260507224302 55 303 5.0 9.0 0.00 0.00 0.00 42 1012.6
20260507224202 55 305 5.0 9.0 0.00 0.00 0.00 41 1012.5
20260507224002 56 306 4.0 9.0 0.00 0.00 0.00 41 1012.6
20260507223602 55 280 5.0 13.0 0.00 0.00 0.00 42 1012.8
20260507223402 56 273 6.0 13.0 0.00 0.00 0.00 41 1012.5
20260507223323 56 281 6.0 13.0 0.00 0.00 0.00 41 1012.6
20260507223102 55 270 6.0 15.0 0.00 0.00 0.00 44 1012.7
20260507223002 55 267 7.0 17.0 0.00 0.00 0.00 41 1012.7
20260507222823 55 261 7.0 18.0 0.00 0.00 0.00 41 1012.5
20260507222723 55 259 7.0 18.0 0.00 0.00 0.00 41 1012.7
20260507222602 55 266 7.0 18.0 0.00 0.00 0.00 40 1012.5
20260507222502 55 264 7.0 18.0 0.00 0.00 0.00 41 1012.4
20260507222202 55 265 7.0 18.0 0.00 0.00 0.00 42 1012.6
20260507222102 55 264 7.0 18.0 0.00 0.00 0.00 40 1012.7
20260507222023 55 267 7.0 18.0 0.00 0.00 0.00 40 1012.5
20260507221902 55 269 7.0 16.0 0.00 0.00 0.00 40 1012.6
20260507221802 55 271 6.0 16.0 0.00 0.00 0.00 40 1012.7
20260507221702 55 281 6.0 16.0 0.00 0.00 0.00 40 1012.7
20260507221602 55 282 6.0 16.0 0.00 0.00 0.00 41 1012.6
20260507221102 55 310 6.0 16.0 0.00 0.00 0.00 40 1012.7
20260507220623 55 327 6.0 18.0 0.00 0.00 0.00 43 1012.5
20260507220502 55 315 6.0 18.0 0.00 0.00 0.00 41 1012.4
20260507220302 55 320 6.0 18.0 0.00 0.00 0.00 43 1012.5
20260507220002 56 318 6.0 18.0 0.00 0.00 0.00 42 1012.5
20260507215702 55 331 6.0 13.0 0.00 0.00 0.00 45 1012.3
20260507215602 55 334 6.0 13.0 0.00 0.00 0.00 43 1012.5
20260507215502 55 347 6.0 13.0 0.00 0.00 0.00 44 1012.3
20260507215402 56 353 6.0 14.0 0.00 0.00 0.00 43 1012.3
20260507215323 56 348 6.0 14.0 0.00 0.00 0.00 44 1012.2
20260507215202 56 353 6.0 16.0 0.00 0.00 0.00 44 1012.4
20260507215102 56 348 7.0 17.0 0.00 0.00 0.00 45 1012.6
20260507214702 55 315 7.0 17.0 0.00 0.00 0.00 47 1012.5
20260507214623 55 312 6.0 17.0 0.00 0.00 0.00 48 1012.6
20260507214102 54 296 5.0 15.0 0.00 0.00 0.00 49 1012.4
20260507214002 54 301 5.0 11.0 0.00 0.00 0.00 50 1012.3
20260507213702 53 298 6.0 14.0 0.00 0.00 0.00 52 1012.2
20260507213423 53 301 6.0 14.0 0.00 0.00 0.00 51 1012.4
20260507213102 53 282 6.0 14.0 0.00 0.00 0.00 51 1012.4
20260507213002 53 287 6.0 14.0 0.00 0.00 0.00 51 1012.3
20260507212902 54 290 5.0 14.0 0.00 0.00 0.00 50 1012.2
20260507212802 54 293 5.0 14.0 0.00 0.00 0.00 53 1012.3
20260507212702 53 281 6.0 14.0 0.00 0.00 0.00 52 1012.3
20260507212623 53 278 6.0 14.0 0.00 0.00 0.00 53 1012.4
20260507212323 54 275 6.0 14.0 0.00 0.00 0.00 52 1012.3
20260507211423 55 281 6.0 17.0 0.00 0.00 0.00 50 1012.3
20260507211002 53 294 6.0 17.0 0.00 0.00 0.00 52 1012.2
20260507210702 54 279 5.0 15.0 0.00 0.00 0.00 52 1012.3
20260507210523 56 269 4.0 10.0 0.00 0.00 0.00 51 1012.2
20260507210423 56 247 4.0 9.0 0.00 0.00 0.00 50 1011.9
20260507210202 55 221 3.0 7.0 0.00 0.00 0.00 51 1011.8
20260507205402 52 12 3.0 8.0 0.00 0.00 0.00 59 1011.8
20260507205202 52 6 3.0 8.0 0.00 0.00 0.00 60 1012.0
20260507205102 52 3 3.0 8.0 0.00 0.00 0.00 58 1011.9
20260507204902 52 18 3.0 8.0 0.00 0.00 0.00 59 1011.8
20260507204502 52 16 4.0 8.0 0.00 0.00 0.00 58 1011.9
20260507204102 52 15 3.0 8.0 0.00 0.00 0.00 59 1011.8
20260507203602 53 7 4.0 9.0 0.00 0.00 0.00 58 1011.9
20260507203402 52 16 4.0 9.0 0.00 0.00 0.00 57 1012.0
20260507203123 52 23 4.0 9.0 0.00 0.00 0.00 57 1011.9
20260507203024 52 26 4.0 9.0 0.00 0.00 0.00 58 1011.9
20260507202802 53 32 4.0 10.0 0.00 0.00 0.00 57 1011.9
20260507202623 53 29 4.0 10.0 0.00 0.00 0.00 57 1011.8
20260507202502 53 29 3.0 10.0 0.00 0.00 0.00 57 1011.7
20260507202402 53 26 3.0 10.0 0.00 0.00 0.00 57 1011.7
20260507202306 53 26 3.0 10.0 0.00 0.00 0.00 57 1011.9
20260507201902 54 12 4.0 10.0 0.00 0.00 0.00 55 1011.7
20260507201602 54 18 3.0 7.0 0.00 0.00 0.00 55 1011.8
20260507201423 54 26 3.0 7.0 0.00 0.00 0.00 53 1011.9
20260507201102 53 37 3.0 7.0 0.00 0.00 0.00 55 1011.8
20260507200923 53 39 3.0 7.0 0.00 0.00 0.00 56 1011.6
20260507200802 53 40 3.0 7.0 0.00 0.00 0.00 55 1011.5
20260507200602 53 36 3.0 7.0 0.00 0.00 0.00 54 1011.7
20260507200402 53 31 3.0 7.0 0.00 0.00 0.00 56 1011.7
20260507200202 53 35 3.0 7.0 0.00 0.00 0.00 54 1011.5
20260507195602 54 353 3.0 7.0 0.00 0.00 0.00 54 1011.6
20260507195502 54 337 3.0 7.0 0.00 0.00 0.00 53 1011.9
20260507195305 54 335 3.0 7.0 0.00 0.00 0.00 56 1011.8
20260507195102 54 340 3.0 8.0 0.00 0.00 0.00 54 1011.8
20260507195002 54 338 3.0 8.0 0.00 0.00 0.00 55 1011.6
20260507194902 54 353 3.0 8.0 0.00 0.00 0.00 55 1011.9
20260507194802 54 340 3.0 8.0 0.00 0.00 0.00 54 1011.7
20260507194202 55 42 3.0 9.0 0.00 0.00 0.00 53 1011.9
20260507194102 55 72 3.0 9.0 0.00 0.00 0.00 53 1011.8
20260507194002 54 20 3.0 9.0 0.00 0.00 0.00 54 1011.7
20260507193702 54 40 3.0 9.0 0.00 0.00 0.00 52 1012.0
20260507193602 54 44 3.0 9.0 0.00 0.00 0.00 55 1011.9
20260507193423 54 9 3.0 9.0 0.00 0.00 0.00 54 1011.9
20260507193202 54 18 3.0 8.0 0.00 0.00 0.00 56 1011.9
20260507193102 54 22 3.0 8.0 0.00 0.00 0.00 52 1011.8
20260507192902 54 18 4.0 8.0 0.00 0.00 0.00 52 1012.2
20260507192802 54 14 4.0 8.0 0.00 0.00 0.00 51 1012.0
20260507192402 54 348 3.0 8.0 0.00 0.00 0.00 53 1011.9
20260507192305 54 354 3.0 8.0 0.00 0.00 0.00 53 1012.2
20260507192102 54 334 3.0 8.0 0.00 0.00 0.00 53 1012.0
20260507192002 54 344 3.0 8.0 0.00 0.00 0.00 54 1012.0
20260507191902 54 16 3.0 8.0 0.00 0.00 0.00 53 1012.0
20260507191602 55 343 4.0 8.0 0.00 0.00 0.00 52 1011.9
20260507191423 56 8 3.0 7.0 0.00 0.00 0.00 51 1012.2
20260507191302 56 13 3.0 7.0 0.00 0.00 0.00 50 1011.9
20260507191102 55 10 3.0 7.0 0.00 0.00 0.00 50 1011.8
20260507191002 55 4 3.0 7.0 0.00 0.00 0.00 52 1011.9
20260507190702 55 21 3.0 6.0 0.00 0.00 0.00 51 1012.2
20260507190502 54 2 3.0 11.0 0.00 0.00 0.00 52 1012.2
20260507190402 53 360 4.0 11.0 0.00 0.00 0.00 51 1012.2
20260507190303 53 346 4.0 11.0 0.00 0.00 0.00 53 1012.3
20260507190202 53 343 4.0 11.0 0.00 0.00 0.00 51 1012.0
20260507190004 53 355 3.0 11.0 0.00 0.00 0.00 52 1012.2
20260507185902 53 354 3.0 11.0 0.00 0.00 0.00 52 1012.0
20260507185723 54 329 3.0 11.0 0.00 0.00 0.00 52 1012.3
20260507185623 54 333 3.0 11.0 0.00 0.00 0.00 53 1011.9
20260507185502 54 11 3.0 9.0 0.00 0.00 0.00 50 1011.9
20260507185423 54 3 3.0 9.0 0.00 0.00 0.00 51 1012.0
20260507185305 53 15 3.0 9.0 0.00 0.00 0.00 53 1012.0
20260507185102 53 359 4.0 9.0 0.00 0.00 0.00 52 1012.3
20260507185002 53 355 4.0 9.0 0.00 0.00 0.00 51 1012.2
20260507184902 53 2 4.0 9.0 0.00 0.00 0.00 50 1012.3
20260507184802 53 13 4.0 9.0 0.00 0.00 0.00 50 1012.2
20260507184102 53 12 4.0 10.0 0.00 0.00 0.00 50 1012.3
20260507183902 53 8 4.0 10.0 0.00 0.00 0.00 51 1012.3
20260507183702 53 3 4.0 10.0 0.00 0.00 0.00 51 1012.3
20260507183602 53 357 4.0 10.0 0.00 0.00 0.00 51 1012.3
20260507182902 54 26 4.0 9.0 0.00 0.00 0.00 51 1012.0
20260507182602 54 35 3.0 8.0 0.00 0.00 0.00 48 1012.0
20260507182523 54 50 3.0 8.0 0.00 0.00 0.00 49 1012.3
20260507182402 54 52 3.0 9.0 0.00 0.00 0.00 49 1012.3
20260507182102 54 21 3.0 9.0 0.00 0.00 0.00 49 1012.3
20260507181802 53 31 3.0 9.0 0.00 0.00 0.00 50 1012.3
20260507181623 53 29 3.0 9.0 0.00 0.00 0.00 51 1012.3
20260507181502 53 17 4.0 9.0 0.00 0.00 0.00 49 1012.3
20260507181202 53 10 4.0 10.0 0.00 0.00 0.00 49 1012.2
20260507181102 53 16 4.0 10.0 0.00 0.00 0.00 52 1012.3
20260507180702 53 1 5.0 10.0 0.00 0.00 0.00 51 1012.2
20260507180623 53 354 5.0 10.0 0.00 0.00 0.00 49 1012.3
20260507180402 53 344 5.0 10.0 0.00 0.00 0.00 50 1012.2
20260507180302 54 348 5.0 10.0 0.00 0.00 0.00 50 1012.2
20260507175802 55 310 5.0 11.0 0.00 0.00 0.00 52 1012.2
20260507175502 55 323 5.0 11.0 0.00 0.00 0.00 52 1012.4
20260507175306 55 314 5.0 11.0 0.00 0.00 0.00 50 1012.5
20260507175123 55 338 4.0 10.0 0.00 0.00 0.00 52 1012.2
20260507175002 56 343 4.0 10.0 0.00 0.00 0.00 52 1012.2
20260507174902 56 354 4.0 10.0 0.00 0.00 0.00 49 1012.4
20260507174702 56 9 4.0 10.0 0.00 0.00 0.00 50 1012.2
20260507174623 55 8 4.0 8.0 0.00 0.00 0.00 53 1012.2
20260507174402 54 24 4.0 8.0 0.00 0.00 0.00 52 1012.3
20260507174302 54 26 4.0 10.0 0.00 0.00 0.00 50 1012.3
20260507174123 54 33 4.0 10.0 0.00 0.00 0.00 50 1012.2
20260507173502 55 16 4.0 11.0 0.00 0.00 0.00 52 1012.3
20260507173423 55 3 4.0 11.0 0.00 0.00 0.00 50 1012.3
20260507173002 54 336 4.0 9.0 0.00 0.00 0.00 52 1012.5
20260507172902 54 320 4.0 9.0 0.00 0.00 0.00 53 1012.3
20260507172602 54 301 5.0 10.0 0.00 0.00 0.00 52 1012.5
20260507172523 54 299 5.0 10.0 0.00 0.00 0.00 52 1012.4
20260507172323 54 305 5.0 10.0 0.00 0.00 0.00 54 1012.3
20260507172202 55 296 4.0 10.0 0.00 0.00 0.00 53 1012.4
20260507172123 55 296 4.0 10.0 0.00 0.00 0.00 51 1012.4
20260507172002 55 286 4.0 10.0 0.00 0.00 0.00 53 1012.4
20260507171902 54 286 4.0 10.0 0.00 0.00 0.00 58 1012.3
20260507171802 54 294 4.0 10.0 0.00 0.00 0.00 54 1012.3
20260507171702 54 295 3.0 10.0 0.00 0.00 0.00 53 1012.2
20260507171623 54 307 3.0 10.0 0.00 0.00 0.00 54 1012.3
20260507171502 54 297 3.0 7.0 0.00 0.00 0.00 54 1012.4
20260507171423 54 294 3.0 7.0 0.00 0.00 0.00 55 1012.5
20260507171202 54 329 3.0 7.0 0.00 0.00 0.00 56 1012.4
20260507171102 54 339 3.0 7.0 0.00 0.00 0.00 56 1012.4
20260507170902 53 3 3.0 9.0 0.00 0.00 0.00 58 1012.5
20260507170802 53 345 4.0 11.0 0.00 0.00 0.00 58 1012.5
20260507170602 54 347 4.0 11.0 0.00 0.00 0.00 56 1012.3
20260507170502 54 358 4.0 11.0 0.00 0.00 0.00 57 1012.5
20260507170402 53 349 4.0 11.0 0.00 0.00 0.00 58 1012.6
20260507170002 54 340 5.0 11.0 0.00 0.00 0.00 55 1012.4
20260507165402 56 307 4.0 11.0 0.00 0.00 0.00 54 1012.3
20260507165102 56 276 5.0 11.0 0.00 0.00 0.00 54 1012.3
20260507164902 54 270 5.0 11.0 0.00 0.00 0.00 56 1012.4
20260507164602 54 290 5.0 11.0 0.00 0.00 0.00 56 1012.4
20260507164423 54 302 5.0 11.0 0.00 0.00 0.00 55 1012.4
20260507164202 54 343 4.0 9.0 0.00 0.00 0.00 56 1012.4
20260507164102 54 7 4.0 8.0 0.00 0.00 0.00 56 1012.6
20260507164002 53 19 4.0 8.0 0.00 0.00 0.00 58 1012.6
20260507163602 54 334 4.0 10.0 0.00 0.00 0.00 57 1012.4
20260507163102 54 334 4.0 10.0 0.00 0.00 0.00 58 1012.7
20260507162902 54 316 4.0 10.0 0.00 0.00 0.00 56 1012.6
20260507162502 55 333 4.0 10.0 0.00 0.00 0.00 56 1012.2
20260507162402 54 343 4.0 10.0 0.00 0.00 0.00 57 1012.2
20260507162306 54 334 4.0 10.0 0.00 0.00 0.00 56 1012.4
20260507162102 53 306 5.0 11.0 0.00 0.00 0.00 55 1012.3
20260507161702 54 294 5.0 11.0 0.00 0.00 0.00 54 1012.3
20260507161602 54 286 5.0 11.0 0.00 0.00 0.00 53 1012.3
20260507161502 54 279 6.0 11.0 0.00 0.00 0.00 53 1012.3
20260507161102 54 284 5.0 11.0 0.00 0.00 0.00 53 1012.2
20260507160902 55 283 5.0 11.0 0.00 0.00 0.00 52 1012.3
20260507160802 56 291 5.0 11.0 0.00 0.00 0.00 50 1012.3
20260507160602 57 319 4.0 10.0 0.00 0.00 0.00 43 1012.4
20260507160002 56 331 3.0 8.0 0.00 0.00 0.00 45 1012.3
20260507155703 55 248 2.0 8.0 0.00 0.00 0.00 44 1012.3
20260507155602 55 70 2.0 8.0 0.00 0.00 0.00 46 1012.5
20260507155402 55 135 2.0 8.0 0.00 0.00 0.00 46 1012.4
20260507155102 56 334 2.0 4.0 0.00 0.00 0.00 45 1012.2
20260507154802 57 282 2.0 8.0 0.00 0.00 0.00 44 1012.3
20260507154402 56 271 4.0 9.0 0.00 0.00 0.00 43 1012.3
20260507154102 55 242 3.0 9.0 0.00 0.00 0.00 45 1012.5
20260507154002 55 230 3.0 9.0 0.00 0.00 0.00 46 1012.5